This is the latest recevied weather packets stored in our database for station/object K9ZOG. If no packets are shown the sender has not sent any weather packets the latest 10 day(s).
| Time | Temp. | Humidity | Pressure | Rain* | Wind** | Luminosity | Snow |
|---|---|---|---|---|---|---|---|
| 1777979354 | 7.78° C | 82% | 1005.7 hPa | 0 mm | - | 26 W/m² | - |
| 1777979053 | 7.78° C | 82% | 1005.4 hPa | 0 mm | - | 15 W/m² | - |
| 1777978755 | 7.78° C | 83% | 1005.3 hPa | 0 mm | - | 15 W/m² | - |
| 1777978453 | 7.78° C | 83% | 1005.3 hPa | 0 mm | - | 13 W/m² | - |
| 1777978152 | 7.78° C | 84% | 1005.5 hPa | 0 mm | - | 10 W/m² | - |
| 1777977854 | 7.78° C | 84% | 1005.5 hPa | 0 mm | - | 6 W/m² | - |
| 1777977554 | 7.78° C | 83% | 1005.2 hPa | 0 mm | - | 4 W/m² | - |
| 1777977259 | 7.78° C | 83% | 1005.2 hPa | 0 mm | - | 2 W/m² | - |
| 1777976955 | 7.78° C | 82% | 1005 hPa | 0 mm | - | 2 W/m² | - |
| 1777976652 | 7.78° C | 82% | 1004.9 hPa | 0 mm | - | 1 W/m² | - |
| 1777976354 | 7.78° C | 82% | 1004.9 hPa | 0 mm | - | 0 W/m² | - |
| 1777976053 | 7.78° C | 81% | 1004.5 hPa | 0 mm | - | 0 W/m² | - |
| 1777975753 | 7.78° C | 81% | 1004.3 hPa | 0 mm | - | 0 W/m² | - |
| 1777975453 | 7.78° C | 81% | 1004.3 hPa | 0 mm | - | 0 W/m² | - |
| 1777975153 | 7.78° C | 81% | 1004.3 hPa | 0 mm | - | 0 W/m² | - |
| 1777974853 | 7.78° C | 80% | 1004.3 hPa | 0 mm | - | 0 W/m² | - |
| 1777974553 | 7.78° C | 80% | 1004.4 hPa | 0 mm | - | 0 W/m² | - |
| 1777974253 | 7.78° C | 79% | 1004.3 hPa | 0 mm | - | 0 W/m² | - |
| 1777973952 | 8.33° C | 78% | 1003.9 hPa | 0 mm | - | 0 W/m² | - |
| 1777973657 | 8.33° C | 76% | 1003.5 hPa | 0 mm | - | 0 W/m² | - |
| 1777973355 | 8.89° C | 76% | 1003.4 hPa | 0 mm | - | 0 W/m² | - |
| 1777973056 | 8.89° C | 74% | 1003.1 hPa | 0 mm | - | 0 W/m² | - |
| 1777972753 | 9.44° C | 73% | 1002.9 hPa | 0 mm | - | 0 W/m² | - |
| 1777972453 | 9.44° C | 71% | 1002.9 hPa | 0 mm | - | 0 W/m² | - |
| 1777972154 | 9.44° C | 70% | 1002.8 hPa | 0 mm | - | 0 W/m² | - |
* Rain latest hour (hover to see other rain measurements)
** Current wind speed in m/s (hover to see current wind gust speed)